• In Deutschland
  • Länderverzeichnis
  • Für 7 Tage
  • Wassertemperatur
  • Satellitenkarten
  • Wetterkarte
  • Widgets
  • user-avatar
    Anmelden

    Stündliche Wetter Zaykovo

    Heute, 21 Juli, Samstag

    Zeit Temperatur Niederschläge Wind Luftdruck Luftfeuchtigkeit
    00:00 +20°C° 0 mm 3 m/S 739 mmHg 96%
    01:00 +19°C° 0 mm 3 m/S 739 mmHg 97%
    02:00 +19°C° 0 mm 2 m/S 739 mmHg 97%
    03:00 +19°C° 0 mm 2 m/S 739 mmHg 97%
    04:00 +19°C° 0 mm 2 m/S 740 mmHg 97%
    05:00 +19°C° 0 mm 3 m/S 740 mmHg 97%
    06:00 +20°C° 0 mm 3 m/S 740 mmHg 93%
    07:00 +22°C° 0 mm 3 m/S 740 mmHg 89%
    08:00 +24°C° 0 mm 3 m/S 741 mmHg 86%
    09:00 +25°C° 0,6 mm 3 m/S 741 mmHg 83%
    10:00 +26°C° 0,6 mm 3 m/S 741 mmHg 80%
    11:00 +26°C° 0,6 mm 3 m/S 741 mmHg 77%
    12:00 +27°C° 0,7 mm 3 m/S 741 mmHg 77%
    13:00 +27°C° 0,7 mm 3 m/S 741 mmHg 77%
    14:00 +27°C° 0,7 mm 4 m/S 741 mmHg 77%
    15:00 +26°C° 0,2 mm 3 m/S 741 mmHg 78%
    16:00 +26°C° 0,2 mm 3 m/S 741 mmHg 78%
    17:00 +26°C° 0,2 mm 3 m/S 741 mmHg 79%
    18:00 +25°C° 0,1 mm 3 m/S 741 mmHg 83%
    19:00 +24°C° 0,1 mm 3 m/S 741 mmHg 88%
    20:00 +22°C° 0,1 mm 3 m/S 741 mmHg 92%
    21:00 +21°C° 0,4 mm 3 m/S 741 mmHg 94%
    22:00 +20°C° 0,4 mm 3 m/S 741 mmHg 95%
    23:00 +20°C° 0,4 mm 3 m/S 741 mmHg 97%

    Morgen, 22 Juli, Sonntag

    Zeit Temperatur Niederschläge Wind Luftdruck Luftfeuchtigkeit
    00:00 +19°C° 0,2 mm 3 m/S 742 mmHg 97%
    01:00 +18°C° 0,2 mm 3 m/S 742 mmHg 97%
    02:00 +18°C° 0,2 mm 3 m/S 742 mmHg 98%
    03:00 +18°C° 0 mm 3 m/S 742 mmHg 97%
    04:00 +18°C° 0 mm 3 m/S 742 mmHg 97%
    05:00 +18°C° 0 mm 3 m/S 742 mmHg 97%
    06:00 +18°C° 0 mm 3 m/S 742 mmHg 95%
    07:00 +19°C° 0 mm 3 m/S 742 mmHg 93%
    08:00 +19°C° 0 mm 3 m/S 742 mmHg 91%
    09:00 +20°C° 0,1 mm 3 m/S 742 mmHg 90%
    10:00 +20°C° 0,1 mm 3 m/S 743 mmHg 88%
    11:00 +21°C° 0,1 mm 3 m/S 743 mmHg 87%
    12:00 +21°C° 0,1 mm 3 m/S 743 mmHg 86%
    13:00 +21°C° 0,1 mm 3 m/S 743 mmHg 86%
    14:00 +22°C° 0,1 mm 3 m/S 743 mmHg 85%
    15:00 +22°C° 0,1 mm 3 m/S 743 mmHg 83%
    16:00 +22°C° 0,1 mm 3 m/S 743 mmHg 81%
    17:00 +24°C° 0,1 mm 3 m/S 743 mmHg 79%
    18:00 +22°C° 0,1 mm 3 m/S 743 mmHg 83%
    19:00 +20°C° 0,1 mm 2 m/S 743 mmHg 87%
    20:00 +19°C° 0,1 mm 2 m/S 743 mmHg 91%
    21:00 +19°C° 0 mm 2 m/S 743 mmHg 93%
    22:00 +18°C° 0 mm 2 m/S 743 mmHg 94%
    23:00 +18°C° 0 mm 2 m/S 743 mmHg 96%

    übermorgen, 23 Juli, Montag

    Zeit Temperatur Niederschläge Wind Luftdruck Luftfeuchtigkeit
    00:00 +17°C° 0 mm 2 m/S 743 mmHg 96%
    01:00 +17°C° 0 mm 2 m/S 743 mmHg 97%
    02:00 +17°C° 0 mm 2 m/S 743 mmHg 98%
    03:00 +17°C° 0 mm 2 m/S 743 mmHg 97%
    04:00 +17°C° 0 mm 3 m/S 743 mmHg 97%
    05:00 +17°C° 0 mm 3 m/S 743 mmHg 96%
    06:00 +17°C° 0 mm 3 m/S 743 mmHg 94%
    07:00 +18°C° 0 mm 3 m/S 743 mmHg 92%
    08:00 +18°C° 0 mm 3 m/S 743 mmHg 89%
    09:00 +19°C° 0 mm 3 m/S 744 mmHg 87%
    10:00 +20°C° 0 mm 3 m/S 744 mmHg 85%
    11:00 +20°C° 0 mm 3 m/S 744 mmHg 83%
    12:00 +20°C° 0,1 mm 3 m/S 744 mmHg 83%
    13:00 +20°C° 0,1 mm 3 m/S 744 mmHg 83%
    14:00 +20°C° 0,1 mm 3 m/S 743 mmHg 83%
    15:00 +20°C° 0,1 mm 3 m/S 743 mmHg 85%
    16:00 +20°C° 0,1 mm 3 m/S 743 mmHg 87%
    17:00 +19°C° 0,1 mm 3 m/S 743 mmHg 90%
    18:00 +19°C° 0 mm 3 m/S 744 mmHg 91%
    19:00 +19°C° 0 mm 3 m/S 744 mmHg 93%
    20:00 +18°C° 0 mm 3 m/S 744 mmHg 95%
    21:00 +18°C° 0,2 mm 3 m/S 744 mmHg 95%
    22:00 +18°C° 0,2 mm 3 m/S 744 mmHg 96%
    23:00 +18°C° 0,2 mm 2 m/S 744 mmHg 96%

    24 Juli, Dienstag

    Zeit Temperatur Niederschläge Wind Luftdruck Luftfeuchtigkeit
    00:00 +18°C° 0,2 mm 3 m/S 744 mmHg 97%
    01:00 +17°C° 0,2 mm 3 m/S 744 mmHg 97%
    02:00 +17°C° 0,2 mm 3 m/S 743 mmHg 97%
    03:00 +17°C° 0,2 mm 3 m/S 743 mmHg 97%
    04:00 +17°C° 0,2 mm 3 m/S 744 mmHg 97%
    05:00 +17°C° 0,2 mm 3 m/S 744 mmHg 97%
    06:00 +17°C° 0,1 mm 3 m/S 744 mmHg 97%
    07:00 +17°C° 0,1 mm 3 m/S 744 mmHg 96%
    08:00 +18°C° 0,1 mm 2 m/S 744 mmHg 95%
    09:00 +18°C° 0,1 mm 3 m/S 744 mmHg 93%
    10:00 +19°C° 0,1 mm 3 m/S 744 mmHg 92%
    11:00 +19°C° 0,1 mm 3 m/S 744 mmHg 90%
    12:00 +20°C° 0,1 mm 3 m/S 744 mmHg 90%
    13:00 +20°C° 0,1 mm 3 m/S 744 mmHg 90%
    14:00 +20°C° 0,1 mm 3 m/S 745 mmHg 89%
    15:00 +20°C° 0,1 mm 3 m/S 745 mmHg 90%
    16:00 +20°C° 0,1 mm 3 m/S 745 mmHg 90%
    17:00 +20°C° 0,1 mm 3 m/S 744 mmHg 91%
    18:00 +20°C° 0 mm 3 m/S 745 mmHg 93%
    19:00 +19°C° 0 mm 2 m/S 745 mmHg 95%
    20:00 +19°C° 0 mm 2 m/S 745 mmHg 97%
    21:00 +19°C° 0 mm 2 m/S 745 mmHg 97%
    22:00 +19°C° 0 mm 2 m/S 745 mmHg 98%
    23:00 +19°C° 0 mm 2 m/S 745 mmHg 98%

    25 Juli, Mittwoch

    Zeit Temperatur Niederschläge Wind Luftdruck Luftfeuchtigkeit
    00:00 +18°C° 0,3 mm 2 m/S 744 mmHg 98%
    01:00 +18°C° 0,3 mm 2 m/S 744 mmHg 98%
    02:00 +18°C° 0,3 mm 2 m/S 744 mmHg 99%
    03:00 +18°C° 0 mm 2 m/S 745 mmHg 98%
    04:00 +19°C° 0 mm 2 m/S 745 mmHg 98%
    05:00 +19°C° 0 mm 3 m/S 745 mmHg 98%
    06:00 +19°C° 0,7 mm 3 m/S 745 mmHg 98%
    07:00 +20°C° 0,7 mm 3 m/S 745 mmHg 97%
    08:00 +20°C° 0,7 mm 3 m/S 746 mmHg 97%
    09:00 +20°C° 1,1 mm 3 m/S 746 mmHg 95%
    10:00 +21°C° 1,1 mm 3 m/S 746 mmHg 94%
    11:00 +21°C° 1,1 mm 3 m/S 746 mmHg 92%
    12:00 +22°C° 0,2 mm 4 m/S 745 mmHg 85%
    13:00 +25°C° 0,2 mm 4 m/S 745 mmHg 78%
    14:00 +26°C° 0,2 mm 5 m/S 745 mmHg 71%
    15:00 +25°C° 0,4 mm 4 m/S 745 mmHg 74%
    16:00 +25°C° 0,4 mm 4 m/S 745 mmHg 78%
    17:00 +24°C° 0,4 mm 3 m/S 745 mmHg 81%
    18:00 +22°C° 0,1 mm 3 m/S 745 mmHg 84%
    19:00 +21°C° 0,1 mm 3 m/S 745 mmHg 86%
    20:00 +20°C° 0,1 mm 3 m/S 745 mmHg 88%
    21:00 +19°C° 0 mm 3 m/S 745 mmHg 89%
    22:00 +19°C° 0 mm 3 m/S 745 mmHg 91%
    23:00 +18°C° 0 mm 3 m/S 745 mmHg 92%

    26 Juli, Donnerstag

    Zeit Temperatur Niederschläge Wind Luftdruck Luftfeuchtigkeit
    00:00 +18°C° 0 mm 3 m/S 745 mmHg 94%
    01:00 +18°C° 0 mm 3 m/S 746 mmHg 95%
    02:00 +18°C° 0 mm 3 m/S 746 mmHg 97%
    03:00 +18°C° 0 mm 3 m/S 746 mmHg 96%
    04:00 +18°C° 0 mm 3 m/S 746 mmHg 96%
    05:00 +18°C° 0 mm 3 m/S 747 mmHg 96%
    06:00 +20°C° 0 mm 3 m/S 747 mmHg 92%
    07:00 +21°C° 0 mm 3 m/S 747 mmHg 88%
    08:00 +22°C° 0 mm 3 m/S 748 mmHg 85%
    09:00 +25°C° 0,2 mm 3 m/S 748 mmHg 79%
    10:00 +27°C° 0,2 mm 4 m/S 748 mmHg 73%
    11:00 +28°C° 0,2 mm 4 m/S 748 mmHg 66%
    12:00 +29°C° 0,8 mm 3 m/S 748 mmHg 68%
    13:00 +29°C° 0,8 mm 3 m/S 748 mmHg 70%
    14:00 +29°C° 0,8 mm 3 m/S 748 mmHg 71%
    15:00 +28°C° 0,7 mm 3 m/S 748 mmHg 75%
    16:00 +28°C° 0,7 mm 3 m/S 748 mmHg 78%
    17:00 +27°C° 0,7 mm 2 m/S 748 mmHg 82%
    18:00 +26°C° 0,3 mm 2 m/S 748 mmHg 84%
    19:00 +24°C° 0,3 mm 2 m/S 748 mmHg 87%
    20:00 +23°C° 0,3 mm 2 m/S 748 mmHg 90%
    21:00 +21°C° 0 mm 2 m/S 749 mmHg 90%
    22:00 +21°C° 0 mm 2 m/S 749 mmHg 90%
    23:00 +20°C° 0 mm 2 m/S 749 mmHg 91%
    Mehr zeigen